This demonstration page uses our WeatherBlox Daily Observations layout. Learn more.

Left ArrowRight Arrow

31.31129, -92.44514

Hourly Observations for June 9, 2021

Temp ( °F °C ) Dew Point ( °F °C ) Humidity (%) Winds ( mph kmh ) Pressure ( in mb ) Visibility ( mi km ) Precip ( " mm )
12:53 am 00:53 Partly Cloudy 80 26.7 76 24.4 87 87 SSE 6 9 30.00 1016 9 14 0.00 0.00
1:06 am 01:06 Mostly Cloudy 79 26.1 76 24.4 90 90 SE 6 9 30.00 1016 8 13 0.00 0.00
1:53 am 01:53 Cloudy 80 26.7 76 24.4 87 87 SSE 8 13 30.00 1016 8 13 0.00 0.00
2:27 am 02:27 Cloudy 80 26.7 76 24.4 87 87 SSE 6 9 29.99 1015 8 13 0.00 0.00
2:38 am 02:38 Cloudy 80 26.7 76 24.4 87 87 SSE 7 11 29.99 1015 8 13 0.00 0.00
2:45 am 02:45 Cloudy 80 26.7 76 24.4 87 87 SSE 7 11 29.99 1015 8 13 0.00 0.00
2:53 am 02:53 Cloudy 79 26.1 76 24.4 90 90 SSE 6 9 29.99 1016 8 13 0.00 0.00
3:20 am 03:20 Cloudy 79 26.1 76 24.4 90 90 S 6 9 29.99 1015 8 13 0.00 0.00
3:53 am 03:53 Cloudy 79 26.1 76 24.4 90 90 S 6 9 29.99 1016 8 13 0.00 0.00
4:53 am 04:53 Cloudy 79 26.1 76 24.4 90 90 S 6 9 30.00 1016 8 13 0.00 0.00
5:36 am 05:36 Cloudy 79 26.1 76 24.4 90 90 S 7 11 30.00 1016 9 14 0.00 0.00
5:53 am 05:53 Cloudy 80 26.7 76 24.4 87 87 S 6 9 30.01 1016 9 14 0.00 0.00
6:53 am 06:53 Cloudy 80 26.7 76 24.4 87 87 S 5 7 30.03 1017 7 11 0.00 0.00
7:53 am 07:53 Cloudy 80 26.7 77 25 90 90 S 6 9 30.05 1018 7 11 0.00 0.00
8:53 am 08:53 Mostly Cloudy 83 28.3 76 24.4 79 79 S 8 13 30.06 1018 9 14 0.00 0.00
9:53 am 09:53 Partly Cloudy 86 30 76 24.4 72 72 S 12 19 30.06 1018 9 14 0.00 0.00
10:53 am 10:53 Mostly Cloudy 87 30.6 76 24.4 70 70 S 9 15 30.07 1018 9 14 0.00 0.00
11:26 am 11:26 Mostly Cloudy 89 31.7 76 24.4 65 65 S 8 13 30.05 1018 9 14 0.00 0.00
11:53 am 11:53 Partly Cloudy 89 31.7 76 24.4 65 65 SSW 9 15 30.06 1018 10 16 0.00 0.00
12:53 pm 12:53 Partly Cloudy 91 32.8 76 24.4 61 61 S 9 15 30.05 1018 10 16 0.00 0.00
1:53 pm 13:53 Mostly Sunny 91 32.8 74 23.3 57 57 SSW 16 26 30.03 1017 10 16 0.00 0.00
2:53 pm 14:53 Partly Cloudy 91 32.8 76 24.4 61 61 S 12 19 30.01 1016 10 16 0.00 0.00
3:53 pm 15:53 Sunny 91 32.8 75 23.9 59 59 S 15 24 29.99 1016 10 16 0.00 0.00
4:53 pm 16:53 Mostly Sunny 90 32.2 75 23.9 62 62 S 13 20 29.98 1015 10 16 0.00 0.00
5:53 pm 17:53 Mostly Sunny 90 32.2 74 23.3 59 59 SW 12 19 29.97 1015 10 16 0.00 0.00
6:53 pm 18:53 Sunny 89 31.7 74 23.3 61 61 SSW 9 15 29.97 1015 10 16 0.00 0.00
7:53 pm 19:53 Sunny 86 30 74 23.3 67 67 S 7 11 29.96 1015 10 16 0.00 0.00
8:53 pm 20:53 Clear 83 28.3 74 23.3 74 74 S 6 9 29.97 1015 10 16 0.00 0.00
9:53 pm 21:53 Clear 81 27.2 74 23.3 79 79 S 6 9 30.00 1016 10 16 0.00 0.00
10:53 pm 22:53 Clear 80 26.7 74 23.3 82 82 S 7 11 30.01 1016 10 16 0.00 0.00
11:53 pm 23:53 Clear 79 26.1 74 23.3 85 85 S 6 9 30.01 1016 10 16 0.00 0.00

Powered by AerisWeather